Time,TemperatureF,DewpointF,PressureIn,WindDirection,WindDirectionDegrees,WindSpeedMPH,WindSpeedGustMPH,Humidity,HourlyPrecipIn,Conditions,Clouds,dailyrainin,SoftwareType,DateUTC
2013-08-14 00:12:00,71.0,69.0,29.98,WNW,298,0.0,0.0,95,0.00,,,0.08,,2013-08-14 04:12:00,
2013-08-14 00:23:00,71.0,69.0,29.98,WNW,298,0.0,0.0,95,0.00,,,0.08,,2013-08-14 04:23:00,
2013-08-14 00:52:00,71.0,69.0,29.99,WNW,298,0.0,0.0,95,0.00,,,0.08,,2013-08-14 04:52:00,
2013-08-14 01:12:00,71.0,69.0,29.99,WNW,298,0.0,0.0,95,0.00,,,0.08,,2013-08-14 05:12:00,
2013-08-14 01:22:00,71.0,69.0,29.98,WNW,298,0.0,0.0,95,0.00,,,0.08,,2013-08-14 05:22:00,
2013-08-14 01:52:00,71.0,70.0,29.99,WNW,298,0.0,0.0,96,0.00,,,0.08,,2013-08-14 05:52:00,
2013-08-14 02:11:00,71.0,70.0,29.99,WNW,298,0.0,0.0,96,0.00,,,0.08,,2013-08-14 06:11:00,
2013-08-14 02:21:00,71.0,69.0,29.99,WNW,298,0.0,0.0,95,0.00,,,0.08,,2013-08-14 06:21:00,
2013-08-14 02:52:00,71.0,70.0,29.99,WNW,298,0.0,0.0,96,0.00,,,0.08,,2013-08-14 06:52:00,
2013-08-14 03:11:00,71.0,70.0,29.98,WNW,298,0.0,0.0,96,0.00,,,0.08,,2013-08-14 07:11:00,
2013-08-14 03:21:00,70.0,69.0,29.99,WNW,298,0.0,0.0,96,0.00,,,0.08,,2013-08-14 07:21:00,
2013-08-14 03:52:00,70.0,69.0,29.99,WNW,298,0.0,-999.0,96,-99.99,,,-99.99,,2013-08-14 07:52:00,
2013-08-14 04:21:00,70.0,69.0,29.99,WNW,298,0.0,-999.0,96,-99.99,,,-99.99,,2013-08-14 08:21:00,
2013-08-14 04:52:00,69.0,68.0,29.99,WNW,298,0.0,-999.0,95,-99.99,,,-99.99,,2013-08-14 08:52:00,
2013-08-14 05:21:00,69.0,68.0,29.99,WNW,298,0.0,-999.0,95,-99.99,,,-99.99,,2013-08-14 09:21:00,
2013-08-14 05:53:00,68.0,67.0,30.00,WNW,298,0.0,-999.0,95,-99.99,,,-99.99,,2013-08-14 09:53:00,
2013-08-14 06:12:00,68.0,67.0,30.01,WNW,298,0.0,-999.0,95,-99.99,,,-99.99,,2013-08-14 10:12:00,
2013-08-14 06:23:00,68.0,67.0,30.01,WNW,298,0.0,-999.0,95,-99.99,,,-99.99,,2013-08-14 10:23:00,
2013-08-14 06:52:00,67.0,66.0,30.02,WNW,298,0.0,-999.0,95,-99.99,,,-99.99,,2013-08-14 10:52:00,
2013-08-14 07:11:00,67.0,66.0,30.03,West,279,0.0,-999.0,95,-99.99,,,-99.99,,2013-08-14 11:11:00,
2013-08-14 07:21:00,67.0,66.0,30.05,SW,226,0.0,-999.0,96,-99.99,,,-99.99,,2013-08-14 11:21:00,
2013-08-14 07:52:00,68.0,67.0,30.06,SW,228,0.0,-999.0,96,-99.99,,,-99.99,,2013-08-14 11:52:00,
2013-08-14 08:11:00,68.0,67.0,30.06,SW,228,0.0,-999.0,96,-99.99,,,-99.99,,2013-08-14 12:11:00,
2013-08-14 08:21:00,69.0,68.0,30.06,SW,228,0.0,-999.0,96,-99.99,,,-99.99,,2013-08-14 12:21:00,
2013-08-14 08:52:00,69.0,68.0,30.08,NNW,337,0.0,-999.0,95,-99.99,,,-99.99,,2013-08-14 12:52:00,
2013-08-14 09:11:00,69.0,68.0,30.08,NNW,337,0.0,-999.0,95,-99.99,,,-99.99,,2013-08-14 13:11:00,
2013-08-14 09:22:00,69.0,67.0,30.09,SW,232,0.0,-999.0,93,-99.99,,,-99.99,,2013-08-14 13:22:00,
2013-08-14 09:52:00,70.0,66.0,30.09,WSW,248,0.0,-999.0,87,-99.99,,,-99.99,,2013-08-14 13:52:00,
2013-08-14 10:11:00,70.0,66.0,30.09,SW,226,0.0,-999.0,86,-99.99,,,-99.99,,2013-08-14 14:11:00,
2013-08-14 10:22:00,71.0,66.0,30.09,West,259,0.0,-999.0,83,-99.99,,,-99.99,,2013-08-14 14:22:00,
2013-08-14 10:52:00,72.0,65.0,30.10,SW,234,0.0,-999.0,80,-99.99,,,-99.99,,2013-08-14 14:52:00,
2013-08-14 11:11:00,72.0,65.0,30.10,WSW,240,0.0,-999.0,79,-99.99,,,-99.99,,2013-08-14 15:11:00,
2013-08-14 11:22:00,73.0,66.0,30.11,SW,222,0.0,-999.0,79,-99.99,,,-99.99,,2013-08-14 15:22:00,
2013-08-14 11:57:00,73.0,65.0,30.11,SSW,205,0.0,-999.0,76,-99.99,,,-99.99,,2013-08-14 15:57:00,
2013-08-14 12:28:00,74.0,65.0,30.12,SW,223,0.0,-999.0,73,-99.99,,,-99.99,,2013-08-14 16:28:00,
2013-08-14 13:05:00,74.0,64.0,30.12,West,263,0.0,-999.0,71,-99.99,,,-99.99,,2013-08-14 17:05:00,
2013-08-14 13:29:00,75.0,65.0,30.12,SW,221,1.0,-999.0,71,-99.99,,,-99.99,,2013-08-14 17:29:00,
2013-08-14 13:55:00,74.0,64.0,30.12,SW,230,1.0,-999.0,71,-99.99,,,-99.99,,2013-08-14 17:55:00,
2013-08-14 14:36:00,76.0,64.0,30.11,ESE,114,1.0,-999.0,66,-99.99,,,-99.99,,2013-08-14 18:36:00,
2013-08-14 15:01:00,-999.0,-99.9,30.11,SW,234,1.0,-999.0,-999,-99.99,,,-99.99,,2013-08-14 19:01:00,
2013-08-14 15:14:00,77.0,65.0,30.11,SW,234,0.0,-999.0,66,-99.99,,,-99.99,,2013-08-14 19:14:00,
2013-08-14 15:34:00,77.0,64.0,30.11,West,271,0.0,-999.0,64,-99.99,,,-99.99,,2013-08-14 19:34:00,
2013-08-14 15:58:00,78.0,64.0,30.09,SW,219,0.0,-999.0,62,-99.99,,,-99.99,,2013-08-14 19:58:00,
2013-08-14 16:12:00,78.0,64.0,30.09,SW,232,0.0,-999.0,63,-99.99,,,-99.99,,2013-08-14 20:12:00,
2013-08-14 16:53:00,78.0,63.0,30.10,SW,222,0.0,-999.0,61,-99.99,,,-99.99,,2013-08-14 20:53:00,
2013-08-14 17:13:00,78.0,63.0,30.10,SW,225,0.0,-999.0,60,-99.99,,,-99.99,,2013-08-14 21:13:00,
2013-08-14 17:24:00,77.0,63.0,30.09,West,259,0.0,-999.0,62,-99.99,,,-99.99,,2013-08-14 21:24:00,
2013-08-14 17:55:00,77.0,63.0,30.09,SW,225,0.0,-999.0,62,-99.99,,,-99.99,,2013-08-14 21:55:00,
2013-08-14 18:23:00,76.0,62.0,30.10,SW,227,0.0,-999.0,62,-99.99,,,-99.99,,2013-08-14 22:23:00,
2013-08-14 18:55:00,75.0,62.0,30.10,WSW,255,0.0,-999.0,64,-99.99,,,-99.99,,2013-08-14 22:55:00,
2013-08-14 19:25:00,74.0,64.0,30.10,West,269,0.0,-999.0,70,-99.99,,,-99.99,,2013-08-14 23:25:00,
2013-08-14 19:56:00,72.0,65.0,30.12,WNW,287,0.0,-999.0,78,-99.99,,,-99.99,,2013-08-14 23:56:00,
2013-08-14 20:12:00,71.0,64.0,30.11,WNW,287,0.0,-999.0,78,-99.99,,,-99.99,,2013-08-15 00:12:00,
2013-08-14 20:23:00,70.0,63.0,30.13,SW,227,0.0,-999.0,78,-99.99,,,-99.99,,2013-08-15 00:23:00,
2013-08-14 20:43:00,70.0,64.0,30.13,SW,227,0.0,-999.0,80,-99.99,,,-99.99,,2013-08-15 00:43:00,
2013-08-14 20:52:00,69.0,63.0,30.13,SW,227,0.0,-999.0,82,-99.99,,,-99.99,,2013-08-15 00:52:00,
2013-08-14 21:16:00,69.0,64.0,30.14,SW,227,0.0,-999.0,84,-99.99,,,-99.99,,2013-08-15 01:16:00,
2013-08-14 21:22:00,68.0,63.0,30.14,SW,227,0.0,-999.0,84,-99.99,,,-99.99,,2013-08-15 01:22:00,
2013-08-14 21:52:00,66.0,62.0,30.16,SW,227,0.0,-999.0,87,-99.99,,,-99.99,,2013-08-15 01:52:00,
2013-08-14 22:11:00,66.0,62.0,30.16,SW,227,0.0,-999.0,87,-99.99,,,-99.99,,2013-08-15 02:11:00,
2013-08-14 22:21:00,65.0,61.0,30.16,SW,227,0.0,-999.0,88,-99.99,,,-99.99,,2013-08-15 02:21:00,
2013-08-14 23:22:00,64.0,61.0,30.19,SW,227,0.0,-999.0,91,-99.99,,,-99.99,,2013-08-15 03:22:00,
2013-08-14 23:53:00,64.0,61.0,30.19,SW,227,0.0,-999.0,91,-99.99,,,-99.99,,2013-08-15 03:53:00,